Location: Bennemühlen
(52.5740°N, 9.7135°E)
Time: 17:09:26
(UTC+00:00)

Tiros 1 despin weight - Pass Details

Date: 16 February 2026
Orbit: 556 x 593 km, 48.2° (Epoch: 11 March)

Event Time Altitude Azimuth Distance (km) Brightness Sun altitude
Rises 18:43:22 0° 269° (W) 2,734 ? -19.9°
Reaches altitude 10° 18:45:42 10° 262° (W) 1,838 ? -20.3°
Maximum altitude 18:49:38 40° 192° (SSW) 830 ? -20.9°
Enters shadow 18:50:21 37° 167° (SSE) 881 ? -21.0°
Drops below altitude 10° 18:53:35 10° 123° (ESE) 1,844 - -21.5°
Sets 18:55:55 0° 116° (ESE) 2,743 - -21.8°
